Time,TemperatureF,DewpointF,PressureIn,WindDirection,WindDirectionDegrees,WindSpeedMPH,WindSpeedGustMPH,Humidity,HourlyPrecipIn,Conditions,Clouds,dailyrainin,SoftwareType,DateUTC
2013-07-12 00:15:00,58.0,50.0,29.88,NE,47,4.0,-999.0,74,-99.99,,,0.00,weatherlink.com 1.10,2013-07-12 04:15:00,
2013-07-12 00:30:00,58.1,50.0,29.88,NE,53,4.0,-999.0,74,-99.99,,,0.00,weatherlink.com 1.10,2013-07-12 04:30:00,
2013-07-12 00:45:00,58.0,50.0,29.87,NE,52,8.0,-999.0,74,-99.99,,,0.00,weatherlink.com 1.10,2013-07-12 04:45:00,
2013-07-12 01:00:00,57.8,50.0,29.88,NNE,29,7.0,-999.0,74,-99.99,,,0.00,weatherlink.com 1.10,2013-07-12 05:00:00,
2013-07-12 01:15:00,57.3,49.0,29.88,NE,49,5.0,-999.0,74,-99.99,,,0.00,weatherlink.com 1.10,2013-07-12 05:15:00,
2013-07-12 01:30:00,57.2,49.0,29.88,NE,46,10.0,-999.0,74,-99.99,,,0.00,weatherlink.com 1.10,2013-07-12 05:30:00,
2013-07-12 01:45:00,57.2,49.0,29.88,NE,49,5.0,-999.0,74,-99.99,,,0.00,weatherlink.com 1.10,2013-07-12 05:45:00,
2013-07-12 02:00:00,56.8,49.0,29.87,ENE,71,10.0,-999.0,74,-99.99,,,0.00,weatherlink.com 1.10,2013-07-12 06:00:00,
2013-07-12 02:15:00,56.8,49.0,29.87,ENE,65,9.0,-999.0,74,-99.99,,,0.00,weatherlink.com 1.10,2013-07-12 06:15:00,
2013-07-12 02:30:00,56.6,48.0,29.87,NE,51,6.0,-999.0,74,-99.99,,,0.00,weatherlink.com 1.10,2013-07-12 06:30:00,
2013-07-12 02:45:00,56.4,48.0,29.87,NNE,30,6.0,-999.0,74,-99.99,,,0.00,weatherlink.com 1.10,2013-07-12 06:45:00,
2013-07-12 03:00:00,55.7,48.0,29.87,ENE,59,8.0,-999.0,75,-99.99,,,0.00,weatherlink.com 1.10,2013-07-12 07:00:00,
2013-07-12 03:15:00,55.4,48.0,29.87,NE,38,12.0,-999.0,75,-99.99,,,0.00,weatherlink.com 1.10,2013-07-12 07:15:00,
2013-07-12 03:30:00,55.3,48.0,29.87,ENE,69,8.0,-999.0,75,-99.99,,,0.00,weatherlink.com 1.10,2013-07-12 07:30:00,
2013-07-12 03:46:00,55.1,47.0,29.87,ENE,72,10.0,-999.0,75,-99.99,,,0.00,weatherlink.com 1.10,2013-07-12 07:46:00,
2013-07-12 04:01:00,54.3,47.0,29.87,ENE,74,9.0,-999.0,76,-99.99,,,0.00,weatherlink.com 1.10,2013-07-12 08:01:00,
2013-07-12 04:16:00,54.5,47.0,29.87,ENE,63,8.0,-999.0,76,-99.99,,,0.00,weatherlink.com 1.10,2013-07-12 08:16:00,
2013-07-12 04:31:00,54.8,47.0,29.87,NE,47,8.0,-999.0,75,-99.99,,,0.00,weatherlink.com 1.10,2013-07-12 08:31:00,
2013-07-12 04:46:00,54.8,47.0,29.87,NE,49,10.0,-999.0,75,-99.99,,,0.00,weatherlink.com 1.10,2013-07-12 08:46:00,
2013-07-12 05:01:00,54.7,47.0,29.87,North,355,8.0,-999.0,75,-99.99,,,0.00,weatherlink.com 1.10,2013-07-12 09:01:00,
2013-07-12 05:16:00,54.6,47.0,29.88,NE,44,9.0,-999.0,75,-99.99,,,0.00,weatherlink.com 1.10,2013-07-12 09:16:00,
2013-07-12 05:31:00,54.1,46.0,29.88,East,83,10.0,-999.0,75,-99.99,,,0.00,weatherlink.com 1.10,2013-07-12 09:31:00,
2013-07-12 05:46:00,53.6,46.0,29.88,ENE,58,5.0,-999.0,75,-99.99,,,0.00,weatherlink.com 1.10,2013-07-12 09:46:00,
2013-07-12 06:01:00,53.8,46.0,29.89,NE,41,6.0,-999.0,75,-99.99,,,0.00,weatherlink.com 1.10,2013-07-12 10:01:00,
2013-07-12 06:16:00,53.4,46.0,29.89,NE,53,4.0,-999.0,75,-99.99,,,0.00,weatherlink.com 1.10,2013-07-12 10:16:00,
2013-07-12 06:31:00,53.0,45.0,29.90,ENE,75,6.0,-999.0,75,-99.99,,,0.00,weatherlink.com 1.10,2013-07-12 10:31:00,
2013-07-12 06:46:00,53.1,45.0,29.90,East,80,8.0,-999.0,75,-99.99,,,0.00,weatherlink.com 1.10,2013-07-12 10:46:00,
2013-07-12 07:01:00,53.5,46.0,29.90,ENE,70,5.0,-999.0,77,-99.99,,,0.00,weatherlink.com 1.10,2013-07-12 11:01:00,
2013-07-12 07:16:00,53.2,47.0,29.91,ENE,72,0.0,-999.0,79,-99.99,,,0.00,weatherlink.com 1.10,2013-07-12 11:16:00,
2013-07-12 07:31:00,53.0,47.0,29.91,ENE,65,4.0,-999.0,80,-99.99,,,0.00,weatherlink.com 1.10,2013-07-12 11:31:00,
2013-07-12 07:46:00,53.3,50.0,29.91,NE,50,4.0,-999.0,88,-99.99,,,0.00,weatherlink.com 1.10,2013-07-12 11:46:00,
2013-07-12 08:01:00,54.8,53.0,29.91,ENE,60,6.0,-999.0,94,-99.99,,,0.00,weatherlink.com 1.10,2013-07-12 12:01:00,
2013-07-12 08:16:00,55.7,54.0,29.91,East,87,14.0,-999.0,94,-99.99,,,0.00,weatherlink.com 1.10,2013-07-12 12:16:00,
2013-07-12 08:31:00,57.4,55.0,29.92,NE,49,6.0,-999.0,91,-99.99,,,0.00,weatherlink.com 1.10,2013-07-12 12:31:00,
2013-07-12 08:46:00,57.3,55.0,29.92,ENE,66,4.0,-999.0,92,-99.99,,,0.00,weatherlink.com 1.10,2013-07-12 12:46:00,
2013-07-12 09:01:00,58.0,55.0,29.92,ENE,67,6.0,-999.0,89,-99.99,,,0.00,weatherlink.com 1.10,2013-07-12 13:01:00,
2013-07-12 09:16:00,58.8,55.0,29.93,NE,43,10.0,-999.0,87,-99.99,,,0.00,weatherlink.com 1.10,2013-07-12 13:16:00,
2013-07-12 09:31:00,59.3,55.0,29.93,ENE,58,6.0,-999.0,84,-99.99,,,0.00,weatherlink.com 1.10,2013-07-12 13:31:00,
2013-07-12 09:46:00,59.3,55.0,29.93,NE,36,2.0,-999.0,84,-99.99,,,0.00,weatherlink.com 1.10,2013-07-12 13:46:00,
2013-07-12 10:01:00,59.0,54.0,29.94,ENE,72,14.0,-999.0,84,-99.99,,,0.00,weatherlink.com 1.10,2013-07-12 14:01:00,
2013-07-12 10:16:00,59.5,55.0,29.95,ENE,78,6.0,-999.0,85,-99.99,,,0.00,weatherlink.com 1.10,2013-07-12 14:16:00,
2013-07-12 10:31:00,59.4,56.0,29.95,East,79,8.0,-999.0,88,-99.99,,,0.00,weatherlink.com 1.10,2013-07-12 14:31:00,
2013-07-12 10:46:00,58.3,56.0,29.95,ENE,59,8.0,-999.0,91,-99.99,,,0.00,weatherlink.com 1.10,2013-07-12 14:46:00,
2013-07-12 11:01:00,58.1,56.0,29.95,NE,42,2.0,-999.0,91,-99.99,,,0.00,weatherlink.com 1.10,2013-07-12 15:01:00,
2013-07-12 11:16:00,57.9,56.0,29.96,ENE,65,6.0,-999.0,92,-99.99,,,0.00,weatherlink.com 1.10,2013-07-12 15:16:00,
2013-07-12 11:31:00,57.3,55.0,29.96,East,86,11.0,-999.0,91,-99.99,,,0.00,weatherlink.com 1.10,2013-07-12 15:31:00,
2013-07-12 11:46:00,57.6,55.0,29.96,ENE,70,6.0,-999.0,92,-99.99,,,0.00,weatherlink.com 1.10,2013-07-12 15:46:00,
2013-07-12 12:01:00,56.7,55.0,29.96,NE,51,5.0,-999.0,93,-99.99,,,0.00,weatherlink.com 1.10,2013-07-12 16:01:00,
2013-07-12 12:16:00,57.0,55.0,29.96,ENE,77,8.0,-999.0,93,-99.99,,,0.00,weatherlink.com 1.10,2013-07-12 16:16:00,
2013-07-12 12:31:00,58.1,56.0,29.96,ENE,69,9.0,-999.0,91,-99.99,,,0.00,weatherlink.com 1.10,2013-07-12 16:31:00,
2013-07-12 12:46:00,59.6,56.0,29.96,ENE,61,5.0,-999.0,88,-99.99,,,0.00,weatherlink.com 1.10,2013-07-12 16:46:00,
2013-07-12 13:16:00,59.5,56.0,29.96,NE,52,7.0,-999.0,88,-99.99,,,0.00,weatherlink.com 1.10,2013-07-12 17:16:00,
2013-07-12 13:31:00,59.0,56.0,29.95,NE,51,8.0,-999.0,90,-99.99,,,0.00,weatherlink.com 1.10,2013-07-12 17:31:00,
2013-07-12 13:46:00,59.6,56.0,29.96,ENE,74,12.0,-999.0,88,-99.99,,,0.00,weatherlink.com 1.10,2013-07-12 17:46:00,
2013-07-12 14:01:00,59.7,57.0,29.96,East,87,11.0,-999.0,89,-99.99,,,0.00,weatherlink.com 1.10,2013-07-12 18:01:00,
2013-07-12 14:16:00,60.4,57.0,29.96,NE,47,6.0,-999.0,87,-99.99,,,0.00,weatherlink.com 1.10,2013-07-12 18:16:00,
2013-07-12 14:47:00,61.0,57.0,29.96,East,86,5.0,-999.0,86,-99.99,,,0.00,weatherlink.com 1.10,2013-07-12 18:47:00,
2013-07-12 15:01:00,61.2,56.0,29.96,ENE,64,10.0,-999.0,84,-99.99,,,0.00,weatherlink.com 1.10,2013-07-12 19:01:00,
2013-07-12 15:17:00,61.7,57.0,29.95,NE,51,7.0,-999.0,85,-99.99,,,0.00,weatherlink.com 1.10,2013-07-12 19:17:00,
2013-07-12 15:32:00,62.1,56.0,29.96,ENE,69,6.0,-999.0,81,-99.99,,,0.00,weatherlink.com 1.10,2013-07-12 19:32:00,
2013-07-12 15:47:00,63.5,58.0,29.96,East,96,5.0,-999.0,83,-99.99,,,0.00,weatherlink.com 1.10,2013-07-12 19:47:00,
2013-07-12 16:02:00,62.6,57.0,29.95,ENE,59,7.0,-999.0,81,-99.99,,,0.00,weatherlink.com 1.10,2013-07-12 20:02:00,
2013-07-12 16:32:00,62.6,58.0,29.95,ENE,62,12.0,-999.0,85,-99.99,,,0.00,weatherlink.com 1.10,2013-07-12 20:32:00,
2013-07-12 16:47:00,61.3,57.0,29.95,East,92,9.0,-999.0,86,-99.99,,,0.00,weatherlink.com 1.10,2013-07-12 20:47:00,
2013-07-12 17:02:00,60.8,58.0,29.95,ENE,78,7.0,-999.0,89,-99.99,,,0.00,weatherlink.com 1.10,2013-07-12 21:02:00,
2013-07-12 17:17:00,59.8,56.0,29.95,NNE,19,7.0,-999.0,88,-99.99,,,0.00,weatherlink.com 1.10,2013-07-12 21:17:00,
2013-07-12 17:32:00,60.5,57.0,29.95,ENE,74,11.0,-999.0,88,-99.99,,,0.00,weatherlink.com 1.10,2013-07-12 21:32:00,
2013-07-12 17:47:00,61.3,57.0,29.95,ENE,71,13.0,-999.0,86,-99.99,,,0.00,weatherlink.com 1.10,2013-07-12 21:47:00,
2013-07-12 18:02:00,60.4,56.0,29.95,ENE,60,5.0,-999.0,86,-99.99,,,0.00,weatherlink.com 1.10,2013-07-12 22:02:00,
2013-07-12 18:17:00,59.7,57.0,29.95,NE,48,9.0,-999.0,90,-99.99,,,0.00,weatherlink.com 1.10,2013-07-12 22:17:00,
2013-07-12 18:32:00,59.1,57.0,29.95,NE,53,7.0,-999.0,91,-99.99,,,0.00,weatherlink.com 1.10,2013-07-12 22:32:00,
2013-07-12 18:47:00,58.1,56.0,29.96,NE,42,7.0,-999.0,93,-99.99,,,0.00,weatherlink.com 1.10,2013-07-12 22:47:00,
2013-07-12 19:02:00,57.5,56.0,29.96,East,79,11.0,-999.0,93,-99.99,,,0.00,weatherlink.com 1.10,2013-07-12 23:02:00,
2013-07-12 19:17:00,57.8,56.0,29.97,NE,46,6.0,-999.0,93,-99.99,,,0.00,weatherlink.com 1.10,2013-07-12 23:17:00,
2013-07-12 19:32:00,57.5,56.0,29.97,East,85,13.0,-999.0,93,-99.99,,,0.00,weatherlink.com 1.10,2013-07-12 23:32:00,
2013-07-12 19:47:00,56.8,55.0,29.98,ENE,61,6.0,-999.0,93,-99.99,,,0.00,weatherlink.com 1.10,2013-07-12 23:47:00,
2013-07-12 20:02:00,56.1,54.0,29.98,NE,46,11.0,-999.0,91,-99.99,,,0.00,weatherlink.com 1.10,2013-07-13 00:02:00,
2013-07-12 20:32:00,55.4,52.0,29.99,NE,37,11.0,-999.0,88,-99.99,,,0.00,weatherlink.com 1.10,2013-07-13 00:32:00,
2013-07-12 20:47:00,55.2,51.0,29.99,NE,55,6.0,-999.0,86,-99.99,,,0.00,weatherlink.com 1.10,2013-07-13 00:47:00,
2013-07-12 21:02:00,55.2,50.0,29.99,ENE,73,9.0,-999.0,83,-99.99,,,0.00,weatherlink.com 1.10,2013-07-13 01:02:00,
2013-07-12 21:17:00,55.2,50.0,29.99,NE,51,6.0,-999.0,82,-99.99,,,0.00,weatherlink.com 1.10,2013-07-13 01:17:00,
2013-07-12 21:32:00,55.3,50.0,29.99,ENE,74,6.0,-999.0,82,-99.99,,,0.00,weatherlink.com 1.10,2013-07-13 01:32:00,
2013-07-12 22:02:00,55.5,49.0,30.01,East,86,11.0,-999.0,80,-99.99,,,0.00,weatherlink.com 1.10,2013-07-13 02:02:00,
2013-07-12 22:17:00,55.6,49.0,30.02,ENE,72,6.0,-999.0,78,-99.99,,,0.00,weatherlink.com 1.10,2013-07-13 02:17:00,
2013-07-12 22:32:00,55.6,49.0,30.02,ENE,69,14.0,-999.0,77,-99.99,,,0.00,weatherlink.com 1.10,2013-07-13 02:32:00,
2013-07-12 22:47:00,55.6,48.0,30.03,ENE,76,6.0,-999.0,76,-99.99,,,0.00,weatherlink.com 1.10,2013-07-13 02:47:00,
2013-07-12 23:02:00,55.7,48.0,30.03,East,93,8.0,-999.0,75,-99.99,,,0.00,weatherlink.com 1.10,2013-07-13 03:02:00,
2013-07-12 23:17:00,55.8,48.0,30.03,ENE,65,8.0,-999.0,75,-99.99,,,0.00,weatherlink.com 1.10,2013-07-13 03:17:00,